Flag for Spain Weather past 2 weeks in Almería, Spain

Now
63 °F

Mild.


Feels Like: 63 °F
Forecast: 62 / 81 °F
Wind: 7 mph from Northeast

Location: Almeria / Aeropuerto

Current Time: May 6, 2015 at 3:32:10 AM

Latest Report: May 6, 2015 at 2:00 AM


Visibility: N/A

Pressure: 29.95 "Hg

Humidity: 86%

Dew point: 59 °F

Location of AlmeríaLocation

Historic Weather in Almería — Graph

°F

Almería temperature yesterday

Maximum temperature yesterday: 73 °F (at 7:00 PM)
Minimum temperature yesterday: 65 °F (at 7:00 AM)
Average temperature yesterday: 68 °F

Past Weeks' High & Low Weather Summary

 TemperatureHumidityPressure
High77 °F (May 2, 6:00 PM)96% (Apr 24, 5:00 AM)30.17 "Hg (Apr 24, 5:00 AM)
Low58 °F (Apr 28, 5:00 AM)36% (Apr 21, 2:00 PM)29.72 "Hg (May 4, 8:00 PM)
Average66 °F77%29.98 "Hg
* Reported Apr 21 2:00 AM — May 6 2:00 AM, Almería, Weather by CustomWeather, © 2015

Note: Actual official high and low records may vary slightly from our data, if they occured in-between our weather recording intervals... More about our weather records

Advertising

Almería weather history for previous 24 hours

 ConditionsComfort  
Time TempWeatherWind HumidityBarometerVisibility
2:00 AM
Wed, May 6
63 °FMild.7 mph86%29.95 "HgN/A
1:00 AM63 °FMild.3 mph85%29.96 "HgN/A
12:00 AM64 °FMild.6 mph85%29.93 "HgN/A
10:00 PM
Tue, May 5
65 °FMild.7 mph80%29.91 "HgN/A
9:00 PM68 °FMild.3 mph70%29.88 "HgN/A
8:00 PM73 °FPartly sunny.9 mph55%29.85 "Hg16 mi
7:00 PM73 °FMild.10 mph53%29.86 "HgN/A
6:00 PM72 °FMild.9 mph57%29.87 "HgN/A
5:00 PM70 °FOvercast.9 mph65%29.89 "Hg16 mi
4:00 PM68 °FMild.5 mph74%29.90 "HgN/A
3:00 PM69 °FMild.9 mph71%29.91 "HgN/A
2:00 PM69 °FOvercast.9 mph72%29.93 "Hg16 mi
1:00 PM69 °FMild.5 mph76%29.93 "HgN/A
12:00 PM71 °FMild.3 mph72%29.93 "HgN/A
11:00 AM70 °FOvercast.8 mph74%29.92 "Hg16 mi
10:00 AM69 °FMild.3 mph78%29.90 "HgN/A
9:00 AM67 °FMild.7 mph82%29.89 "HgN/A
8:00 AM65 °FOvercast.7 mph85%29.87 "Hg16 mi
7:00 AM65 °FMild.5 mph87%29.85 "HgN/A
6:00 AM66 °FMild.5 mph86%29.85 "HgN/A
5:00 AM66 °FPassing clouds.5 mph84%29.83 "Hg16 mi
4:00 AM66 °FMild.9 mph85%29.81 "HgN/A
3:00 AM67 °FMild.13 mph78%29.80 "HgN/A
Weather by CustomWeather, © 2015

See weather overviewHow to use our weather pages